Погода в Дюнкерке

Франция     51°01′46″N   2°22′49″E
темп.,
°C
ветер,
м/с
пор.,
м/с
влажн.,
%
обл.,
%
осадки,
мм/ч
давл.,
гПа
погр.,
м
18 октября, пн
пн1823:00+10ю48755 0.0 1021145
02:00+9ю48765 0.0 1020151
05:00+8ю5875100 0.0 1020151
08:00+9ю51172100 0.0 1020194
11:00+12ю51064100 0.0 1021273
14:00+15ю61059100 0.0 1020422
17:00+16ю71265100 0.0 1018524
20:00+15ю61376100 0.1 1018413
19 октября, вт
вт1923:00+14ю61389100 2.7 1018390
02:00+16ююз71393100 6.4 1017615
05:00+16юз61195100 0.3 1016475
08:00+17юз61195100 0.5 1016489
11:00+18юз71387100 0.4 1017496
14:00+21юз814660 0.4 1016825
17:00+22юз8146231 0.0 1015866
20:00+19ююз7147215 0.0 1014360
20 октября, ср
ср2023:00+19ююз81766100 0.0 1012453
02:00+18ююз81565100 0.0 1010477
05:00+18ююз91866100 0.0 1008716
08:00+18юз121967100 0.0 1006923
11:00+19ююз101767100 0.0 10051208
14:00+18юз11187698 0.9 10031107
17:00+17юз1119712 0.9 10021473
20:00+15юз81677100 1.1 999896
21 октября, чт
чт2123:00+15юз142178100 3.0 9951922
02:00+12юз152278100 5.6 9941612
05:00+11з16207897 1.8 9961386
08:00+11зюз71272100 2.0 1001693
11:00+12юз142383100 7.0 9981415
14:00+14зюз1422753 8.0 9981751
17:00+12з1217598 0.3 10001827
20:00+11зюз81271100 0.7 1001942
22 октября, пт
пт2223:00+10з587222 0.1 1002464
02:00+10зсз4670100 0.1 1003491
05:00+9зсз7982100 1.1 1005643
08:00+10с121568100 6.2 10091129
11:00+11ссз121465100 1.3 10131360
14:00+11ссз11126411 2.3 10171687
17:00+11сз91166100 0.8 10201145
20:00+10сз710595 0.8 1022592